Location: Newark
(37.4425°N, 87.1467°W)
Time: 08:57:26
(UTC+00:00)

Hubble Space Telescope - Visible Passes

Search period start: 20 September 2020 00:00
Search period end: 30 September 2020 00:00
Orbit: 536 x 540 km, 28.5° (Epoch: 19 September)

Date Brightness Start Highest point End Pass type
(mag) Time Alt. Az. Time Alt. Az. Time Alt. Az.
25 Sep 2.9 11:02:45 10° SSW 11:05:34 18° SSE 11:08:22 10° SE visible
26 Sep 2.7 10:51:44 10° SW 10:54:44 20° S 10:57:44 10° ESE visible
27 Sep 2.6 10:41:06 11° SW 10:43:55 21° S 10:47:03 10° ESE visible
28 Sep 2.5 10:31:03 16° SW 10:33:06 22° S 10:36:20 10° ESE visible
29 Sep 2.4 10:20:59 20° SSW 10:22:18 23° S 10:25:34 10° SE visible
